Year,Month,Day,Hour,Minute,Value (Times are PST for insolation in W/m^2)
2016,08,31,00,00,0.00
2016,08,31,00,01,0.00
2016,08,31,00,02,0.00
2016,08,31,00,03,0.00
2016,08,31,00,04,0.00
2016,08,31,00,05,0.00
2016,08,31,00,06,0.00
2016,08,31,00,07,0.00
2016,08,31,00,08,0.00
2016,08,31,00,09,0.00
2016,08,31,00,10,0.00
2016,08,31,00,11,0.00
2016,08,31,00,12,0.00
2016,08,31,00,13,0.00
2016,08,31,00,14,0.00
2016,08,31,00,15,0.00
2016,08,31,00,16,0.00
2016,08,31,00,17,0.00
2016,08,31,00,18,0.00
2016,08,31,00,19,0.00
2016,08,31,00,20,0.00
2016,08,31,00,21,0.00
2016,08,31,00,22,0.00
2016,08,31,00,23,0.00
2016,08,31,00,24,0.00
2016,08,31,00,25,0.00
2016,08,31,00,26,0.00
2016,08,31,00,27,0.00
2016,08,31,00,28,0.00
2016,08,31,00,29,0.00
2016,08,31,00,30,0.00
2016,08,31,00,31,0.00
2016,08,31,00,32,0.00
2016,08,31,00,33,0.00
2016,08,31,00,34,0.00
2016,08,31,00,35,0.00
2016,08,31,00,36,0.00
2016,08,31,00,37,0.00
2016,08,31,00,38,0.00
2016,08,31,00,39,0.00
2016,08,31,00,40,0.00
2016,08,31,00,41,0.00
2016,08,31,00,42,0.00
2016,08,31,00,43,0.00
2016,08,31,00,44,0.00
2016,08,31,00,45,0.00
2016,08,31,00,46,0.00
2016,08,31,00,47,0.00
2016,08,31,00,48,0.00
2016,08,31,00,49,0.00
2016,08,31,00,50,0.00
2016,08,31,00,51,0.00
2016,08,31,00,52,0.00
2016,08,31,00,53,0.00
2016,08,31,00,54,0.00
2016,08,31,00,55,0.00
2016,08,31,00,56,0.00
2016,08,31,00,57,0.00
2016,08,31,00,58,0.00
2016,08,31,00,59,0.00
2016,08,31,01,00,0.00
2016,08,31,01,01,0.00
2016,08,31,01,02,0.00
2016,08,31,01,03,0.00
2016,08,31,01,04,0.00
2016,08,31,01,05,0.00
2016,08,31,01,06,0.00
2016,08,31,01,07,0.00
2016,08,31,01,08,0.00
2016,08,31,01,09,0.00
2016,08,31,01,10,0.00
2016,08,31,01,11,0.00
2016,08,31,01,12,0.00
2016,08,31,01,13,0.00
2016,08,31,01,14,0.00
2016,08,31,01,15,0.00
2016,08,31,01,16,0.00
2016,08,31,01,17,0.00
2016,08,31,01,18,0.00
2016,08,31,01,19,0.00
2016,08,31,01,20,0.00
2016,08,31,01,21,0.00
2016,08,31,01,22,0.00
2016,08,31,01,23,0.00
2016,08,31,01,24,0.00
2016,08,31,01,25,0.00
2016,08,31,01,26,0.00
2016,08,31,01,27,0.00
2016,08,31,01,28,0.00
2016,08,31,01,29,0.00
2016,08,31,01,30,0.00
2016,08,31,01,31,0.00
2016,08,31,01,32,0.00
2016,08,31,01,33,0.00
2016,08,31,01,34,0.00
2016,08,31,01,35,0.00
2016,08,31,01,36,0.00
2016,08,31,01,37,0.00
2016,08,31,01,38,0.00
2016,08,31,01,39,0.00
2016,08,31,01,40,0.00
2016,08,31,01,41,0.00
2016,08,31,01,42,0.00
2016,08,31,01,43,0.00
2016,08,31,01,44,0.00
2016,08,31,01,45,0.00
2016,08,31,01,46,0.00
2016,08,31,01,47,0.00
2016,08,31,01,48,0.00
2016,08,31,01,49,0.00
2016,08,31,01,50,0.00
2016,08,31,01,51,0.00
2016,08,31,01,52,0.00
2016,08,31,01,53,0.00
2016,08,31,01,54,0.00
2016,08,31,01,55,0.00
2016,08,31,01,56,0.00
2016,08,31,01,57,0.00
2016,08,31,01,58,0.00
2016,08,31,01,59,0.00
2016,08,31,02,00,0.00
2016,08,31,02,01,0.00
2016,08,31,02,02,0.00
2016,08,31,02,03,0.00
2016,08,31,02,04,0.00
2016,08,31,02,05,0.00
2016,08,31,02,06,0.00
2016,08,31,02,07,0.00
2016,08,31,02,08,0.00
2016,08,31,02,09,0.00
2016,08,31,02,10,0.00
2016,08,31,02,11,0.00
2016,08,31,02,12,0.00
2016,08,31,02,13,0.00
2016,08,31,02,14,0.00
2016,08,31,02,15,0.00
2016,08,31,02,16,0.00
2016,08,31,02,17,0.00
2016,08,31,02,18,0.00
2016,08,31,02,19,0.00
2016,08,31,02,20,0.00
2016,08,31,02,21,0.00
2016,08,31,02,22,0.00
2016,08,31,02,23,0.00
2016,08,31,02,24,0.00
2016,08,31,02,25,0.00
2016,08,31,02,26,0.00
2016,08,31,02,27,0.00
2016,08,31,02,28,0.00
2016,08,31,02,29,0.00
2016,08,31,02,30,0.00
2016,08,31,02,31,0.00
2016,08,31,02,32,0.00
2016,08,31,02,33,0.00
2016,08,31,02,34,0.00
2016,08,31,02,35,0.00
2016,08,31,02,36,0.00
2016,08,31,02,37,0.00
2016,08,31,02,38,0.00
2016,08,31,02,39,0.00
2016,08,31,02,40,0.00
2016,08,31,02,41,0.00
2016,08,31,02,42,0.00
2016,08,31,02,43,0.00
2016,08,31,02,44,0.00
2016,08,31,02,45,0.00
2016,08,31,02,46,0.00
2016,08,31,02,47,0.00
2016,08,31,02,48,0.00
2016,08,31,02,49,0.00
2016,08,31,02,50,0.00
2016,08,31,02,51,0.00
2016,08,31,02,52,0.00
2016,08,31,02,53,0.00
2016,08,31,02,54,0.00
2016,08,31,02,55,0.00
2016,08,31,02,56,0.00
2016,08,31,02,57,0.00
2016,08,31,02,58,0.00
2016,08,31,02,59,0.00
2016,08,31,03,00,0.00
2016,08,31,03,01,0.00
2016,08,31,03,02,0.00
2016,08,31,03,03,0.00
2016,08,31,03,04,0.00
2016,08,31,03,05,0.00
2016,08,31,03,06,0.00
2016,08,31,03,07,0.00
2016,08,31,03,08,0.00
2016,08,31,03,09,0.00
2016,08,31,03,10,0.00
2016,08,31,03,11,0.00
2016,08,31,03,12,0.00
2016,08,31,03,13,0.00
2016,08,31,03,14,0.00
2016,08,31,03,15,0.00
2016,08,31,03,16,0.00
2016,08,31,03,17,0.00
2016,08,31,03,18,0.00
2016,08,31,03,19,0.00
2016,08,31,03,20,0.00
2016,08,31,03,21,0.00
2016,08,31,03,22,0.00
2016,08,31,03,23,0.00
2016,08,31,03,24,0.00
2016,08,31,03,25,0.00
2016,08,31,03,26,0.00
2016,08,31,03,27,0.00
2016,08,31,03,28,0.00
2016,08,31,03,29,0.00
2016,08,31,03,30,0.00
2016,08,31,03,31,0.00
2016,08,31,03,32,0.00
2016,08,31,03,33,0.00
2016,08,31,03,34,0.00
2016,08,31,03,35,0.00
2016,08,31,03,36,0.00
2016,08,31,03,37,0.00
2016,08,31,03,38,0.00
2016,08,31,03,39,0.00
2016,08,31,03,40,0.00
2016,08,31,03,41,0.00
2016,08,31,03,42,0.00
2016,08,31,03,43,0.00
2016,08,31,03,44,0.00
2016,08,31,03,45,0.00
2016,08,31,03,46,0.00
2016,08,31,03,47,0.00
2016,08,31,03,48,0.00
2016,08,31,03,49,0.00
2016,08,31,03,50,0.00
2016,08,31,03,51,0.00
2016,08,31,03,52,0.00
2016,08,31,03,53,0.00
2016,08,31,03,54,0.00
2016,08,31,03,55,0.00
2016,08,31,03,56,0.00
2016,08,31,03,57,0.00
2016,08,31,03,58,0.00
2016,08,31,03,59,0.00
2016,08,31,04,00,0.00
2016,08,31,04,01,0.00
2016,08,31,04,02,0.00
2016,08,31,04,03,0.00
2016,08,31,04,04,0.00
2016,08,31,04,05,0.00
2016,08,31,04,06,0.00
2016,08,31,04,07,0.00
2016,08,31,04,08,0.00
2016,08,31,04,09,0.00
2016,08,31,04,10,0.00
2016,08,31,04,11,0.00
2016,08,31,04,12,0.00
2016,08,31,04,13,0.00
2016,08,31,04,14,0.00
2016,08,31,04,15,0.00
2016,08,31,04,16,0.00
2016,08,31,04,17,0.00
2016,08,31,04,18,0.00
2016,08,31,04,19,0.00
2016,08,31,04,20,0.00
2016,08,31,04,21,0.00
2016,08,31,04,22,0.00
2016,08,31,04,23,0.00
2016,08,31,04,24,0.00
2016,08,31,04,25,0.00
2016,08,31,04,26,0.00
2016,08,31,04,27,0.00
2016,08,31,04,28,0.00
2016,08,31,04,29,0.00
2016,08,31,04,30,0.00
2016,08,31,04,31,0.00
2016,08,31,04,32,0.00
2016,08,31,04,33,0.00
2016,08,31,04,34,0.00
2016,08,31,04,35,0.00
2016,08,31,04,36,0.00
2016,08,31,04,37,0.00
2016,08,31,04,38,0.00
2016,08,31,04,39,0.00
2016,08,31,04,40,0.00
2016,08,31,04,41,0.00
2016,08,31,04,42,0.00
2016,08,31,04,43,0.00
2016,08,31,04,44,0.00
2016,08,31,04,45,0.00
2016,08,31,04,46,0.00
2016,08,31,04,47,0.00
2016,08,31,04,48,0.00
2016,08,31,04,49,0.00
2016,08,31,04,50,0.00
2016,08,31,04,51,0.00
2016,08,31,04,52,0.00
2016,08,31,04,53,0.00
2016,08,31,04,54,0.00
2016,08,31,04,55,0.00
2016,08,31,04,56,0.00
2016,08,31,04,57,0.00
2016,08,31,04,58,0.00
2016,08,31,04,59,0.00
2016,08,31,05,00,0.00
2016,08,31,05,01,0.00
2016,08,31,05,02,0.00
2016,08,31,05,03,0.00
2016,08,31,05,04,0.00
2016,08,31,05,05,0.00
2016,08,31,05,06,0.00
2016,08,31,05,07,0.00
2016,08,31,05,08,0.00
2016,08,31,05,09,0.00
2016,08,31,05,10,0.00
2016,08,31,05,11,0.00
2016,08,31,05,12,0.00
2016,08,31,05,13,0.00
2016,08,31,05,14,0.00
2016,08,31,05,15,0.00
2016,08,31,05,16,0.00
2016,08,31,05,17,0.00
2016,08,31,05,18,0.00
2016,08,31,05,19,0.00
2016,08,31,05,20,0.00
2016,08,31,05,21,0.00
2016,08,31,05,22,0.00
2016,08,31,05,23,0.00
2016,08,31,05,24,0.00
2016,08,31,05,25,0.00
2016,08,31,05,26,0.00
2016,08,31,05,27,0.00
2016,08,31,05,28,0.00
2016,08,31,05,29,0.00
2016,08,31,05,30,0.00
2016,08,31,05,31,0.00
2016,08,31,05,32,0.00
2016,08,31,05,33,0.00
2016,08,31,05,34,0.00
2016,08,31,05,35,0.00
2016,08,31,05,36,0.00
2016,08,31,05,37,0.00
2016,08,31,05,38,0.00
2016,08,31,05,39,0.00
2016,08,31,05,40,0.00
2016,08,31,05,41,0.00
2016,08,31,05,42,0.00
2016,08,31,05,43,0.00
2016,08,31,05,44,0.00
2016,08,31,05,45,0.00
2016,08,31,05,46,0.00
2016,08,31,05,47,0.00
2016,08,31,05,48,0.00
2016,08,31,05,49,0.00
2016,08,31,05,50,0.00
2016,08,31,05,51,0.00
2016,08,31,05,52,0.00
2016,08,31,05,53,0.00
2016,08,31,05,54,0.00
2016,08,31,05,55,0.00
2016,08,31,05,56,0.00
2016,08,31,05,57,0.00
2016,08,31,05,58,0.00
2016,08,31,05,59,0.00
2016,08,31,06,00,0.00
2016,08,31,06,01,0.00
2016,08,31,06,02,0.00
2016,08,31,06,03,0.00
2016,08,31,06,04,0.00
2016,08,31,06,05,0.00
2016,08,31,06,06,0.00
2016,08,31,06,07,0.00
2016,08,31,06,08,0.00
2016,08,31,06,09,0.00
2016,08,31,06,10,0.00
2016,08,31,06,11,0.00
2016,08,31,06,12,0.00
2016,08,31,06,13,0.00
2016,08,31,06,14,0.00
2016,08,31,06,15,0.00
2016,08,31,06,16,0.00
2016,08,31,06,17,0.00
2016,08,31,06,18,0.00
2016,08,31,06,19,0.00
2016,08,31,06,20,0.00
2016,08,31,06,21,0.00
2016,08,31,06,22,0.00
2016,08,31,06,23,0.00
2016,08,31,06,24,0.00
2016,08,31,06,25,0.00
2016,08,31,06,26,0.00
2016,08,31,06,27,0.00
2016,08,31,06,28,0.00
2016,08,31,06,29,0.00
2016,08,31,06,30,0.00
2016,08,31,06,31,0.00
2016,08,31,06,32,0.00
2016,08,31,06,33,0.00
2016,08,31,06,34,0.00
2016,08,31,06,35,0.00
2016,08,31,06,36,0.00
2016,08,31,06,37,0.00
2016,08,31,06,38,0.00
2016,08,31,06,39,0.00
2016,08,31,06,40,0.00
2016,08,31,06,41,0.00
2016,08,31,06,42,0.00
2016,08,31,06,43,0.00
2016,08,31,06,44,0.00
2016,08,31,06,45,0.00
2016,08,31,06,46,0.00
2016,08,31,06,47,0.00
2016,08,31,06,48,0.00
2016,08,31,06,49,0.00
2016,08,31,06,50,0.00
2016,08,31,06,51,0.00
2016,08,31,06,52,0.00
2016,08,31,06,53,0.00
2016,08,31,06,54,0.00
2016,08,31,06,55,0.00
2016,08,31,06,56,0.00
2016,08,31,06,57,0.00
2016,08,31,06,58,0.00
2016,08,31,06,59,0.00
2016,08,31,07,00,0.00
2016,08,31,07,01,0.00
2016,08,31,07,02,0.00
2016,08,31,07,03,0.20
2016,08,31,07,04,5.70
2016,08,31,07,05,9.00
2016,08,31,07,06,9.00
2016,08,31,07,07,9.00
2016,08,31,07,08,10.40
2016,08,31,07,09,11.00
2016,08,31,07,10,11.10
2016,08,31,07,11,14.00
2016,08,31,07,12,14.00
2016,08,31,07,13,14.00
2016,08,31,07,14,15.10
2016,08,31,07,15,17.30
2016,08,31,07,16,18.00
2016,08,31,07,17,18.00
2016,08,31,07,18,19.30
2016,08,31,07,19,21.00
2016,08,31,07,20,21.00
2016,08,31,07,21,21.00
2016,08,31,07,22,21.00
2016,08,31,07,23,21.00
2016,08,31,07,24,23.20
2016,08,31,07,25,36.20
2016,08,31,07,26,45.10
2016,08,31,07,27,55.10
2016,08,31,07,28,66.80
2016,08,31,07,29,71.20
2016,08,31,07,30,71.60
2016,08,31,07,31,78.30
2016,08,31,07,32,78.50
2016,08,31,07,33,73.40
2016,08,31,07,34,64.90
2016,08,31,07,35,54.80
2016,08,31,07,36,44.20
2016,08,31,07,37,40.40
2016,08,31,07,38,49.90
2016,08,31,07,39,53.90
2016,08,31,07,40,59.10
2016,08,31,07,41,64.10
2016,08,31,07,42,64.20
2016,08,31,07,43,62.00
2016,08,31,07,44,62.00
2016,08,31,07,45,56.40
2016,08,31,07,46,52.80
2016,08,31,07,47,45.40
2016,08,31,07,48,42.00
2016,08,31,07,49,42.00
2016,08,31,07,50,44.60
2016,08,31,07,51,49.90
2016,08,31,07,52,50.80
2016,08,31,07,53,46.50
2016,08,31,07,54,48.40
2016,08,31,07,55,46.60
2016,08,31,07,56,47.70
2016,08,31,07,57,47.60
2016,08,31,07,58,41.40
2016,08,31,07,59,41.90
2016,08,31,08,00,41.50
2016,08,31,08,01,37.10
2016,08,31,08,02,31.70
2016,08,31,08,03,31.10
2016,08,31,08,04,36.80
2016,08,31,08,05,44.60
2016,08,31,08,06,46.80
2016,08,31,08,07,42.60
2016,08,31,08,08,44.30
2016,08,31,08,09,39.60
2016,08,31,08,10,39.50
2016,08,31,08,11,42.60
2016,08,31,08,12,40.10
2016,08,31,08,13,45.40
2016,08,31,08,14,51.30
2016,08,31,08,15,53.90
2016,08,31,08,16,55.20
2016,08,31,08,17,54.00
2016,08,31,08,18,53.30
2016,08,31,08,19,53.00
2016,08,31,08,20,50.90
2016,08,31,08,21,44.50
2016,08,31,08,22,44.50
2016,08,31,08,23,40.30
2016,08,31,08,24,40.30
2016,08,31,08,25,39.00
2016,08,31,08,26,34.20
2016,08,31,08,27,32.10
2016,08,31,08,28,33.00
2016,08,31,08,29,33.60
2016,08,31,08,30,33.70
2016,08,31,08,31,34.80
2016,08,31,08,32,37.00
2016,08,31,08,33,43.80
2016,08,31,08,34,57.10
2016,08,31,08,35,65.80
2016,08,31,08,36,70.00
2016,08,31,08,37,97.10
2016,08,31,08,38,88.80
2016,08,31,08,39,86.20
2016,08,31,08,40,88.40
2016,08,31,08,41,83.30
2016,08,31,08,42,78.20
2016,08,31,08,43,90.00
2016,08,31,08,44,103.00
2016,08,31,08,45,95.30
2016,08,31,08,46,100.20
2016,08,31,08,47,115.30
2016,08,31,08,48,139.80
2016,08,31,08,49,164.70
2016,08,31,08,50,210.70
2016,08,31,08,51,161.00
2016,08,31,08,52,112.10
2016,08,31,08,53,102.70
2016,08,31,08,54,104.00
2016,08,31,08,55,145.40
2016,08,31,08,56,86.10
2016,08,31,08,57,72.60
2016,08,31,08,58,69.00
2016,08,31,08,59,81.10
2016,08,31,09,00,90.30
2016,08,31,09,01,88.40
2016,08,31,09,02,79.60
2016,08,31,09,03,78.00
2016,08,31,09,04,85.00
2016,08,31,09,05,94.10
2016,08,31,09,06,98.90
2016,08,31,09,07,94.70
2016,08,31,09,08,91.40
2016,08,31,09,09,97.50
2016,08,31,09,10,96.70
2016,08,31,09,11,95.90
2016,08,31,09,12,104.20
2016,08,31,09,13,105.80
2016,08,31,09,14,91.90
2016,08,31,09,15,86.40
2016,08,31,09,16,95.20
2016,08,31,09,17,124.40
2016,08,31,09,18,155.80
2016,08,31,09,19,154.30
2016,08,31,09,20,144.70
2016,08,31,09,21,174.40
2016,08,31,09,22,249.40
2016,08,31,09,23,212.40
2016,08,31,09,24,217.80
2016,08,31,09,25,222.90
2016,08,31,09,26,200.80
2016,08,31,09,27,249.80
2016,08,31,09,28,225.30
2016,08,31,09,29,260.60
2016,08,31,09,30,278.00
2016,08,31,09,31,278.00
2016,08,31,09,32,257.70
2016,08,31,09,33,207.00
2016,08,31,09,34,207.00
2016,08,31,09,35,207.00
2016,08,31,09,36,405.00
2016,08,31,09,37,436.60
2016,08,31,09,38,390.00
2016,08,31,09,39,172.10
2016,08,31,09,40,146.70
2016,08,31,09,41,135.00
2016,08,31,09,42,135.00
2016,08,31,09,43,135.00
2016,08,31,09,44,377.40
2016,08,31,09,45,421.00
2016,08,31,09,46,541.00
2016,08,31,09,47,486.80
2016,08,31,09,48,403.00
2016,08,31,09,49,517.00
2016,08,31,09,50,577.00
2016,08,31,09,51,492.20
2016,08,31,09,52,459.00
2016,08,31,09,53,391.30
2016,08,31,09,54,241.00
2016,08,31,09,55,374.50
2016,08,31,09,56,483.00
2016,08,31,09,57,483.00
2016,08,31,09,58,530.20
2016,08,31,09,59,478.00
2016,08,31,10,00,421.10
2016,08,31,10,01,293.10
2016,08,31,10,02,313.00
2016,08,31,10,03,481.40
2016,08,31,10,04,585.10
2016,08,31,10,05,532.90
2016,08,31,10,06,523.60
2016,08,31,10,07,556.10
2016,08,31,10,08,559.00
2016,08,31,10,09,559.00
2016,08,31,10,10,559.00
2016,08,31,10,11,402.60
2016,08,31,10,12,367.90
2016,08,31,10,13,589.70
2016,08,31,10,14,592.60
2016,08,31,10,15,589.00
2016,08,31,10,16,589.00
2016,08,31,10,17,589.00
2016,08,31,10,18,589.00
2016,08,31,10,19,592.30
2016,08,31,10,20,677.50
2016,08,31,10,21,663.10
2016,08,31,10,22,676.40
2016,08,31,10,23,673.00
2016,08,31,10,24,636.40
2016,08,31,10,25,619.00
2016,08,31,10,26,619.00
2016,08,31,10,27,619.00
2016,08,31,10,28,619.00
2016,08,31,10,29,644.20
2016,08,31,10,30,678.30
2016,08,31,10,31,651.90
2016,08,31,10,32,645.60
2016,08,31,10,33,632.30
2016,08,31,10,34,633.40
2016,08,31,10,35,614.10
2016,08,31,10,36,596.80
2016,08,31,10,37,598.00
2016,08,31,10,38,598.00
2016,08,31,10,39,587.00
2016,08,31,10,40,584.50
2016,08,31,10,41,601.30
2016,08,31,10,42,618.50
2016,08,31,10,43,617.80
2016,08,31,10,44,627.60
2016,08,31,10,45,629.00
2016,08,31,10,46,629.00
2016,08,31,10,47,630.20
2016,08,31,10,48,663.50
2016,08,31,10,49,661.10
2016,08,31,10,50,649.00
2016,08,31,10,51,649.00
2016,08,31,10,52,690.40
2016,08,31,10,53,692.60
2016,08,31,10,54,687.00
2016,08,31,10,55,683.30
2016,08,31,10,56,660.40
2016,08,31,10,57,659.00
2016,08,31,10,58,659.00
2016,08,31,10,59,701.60
2016,08,31,11,00,661.90
2016,08,31,11,01,648.90
2016,08,31,11,02,751.90
2016,08,31,11,03,717.50
2016,08,31,11,04,724.00
2016,08,31,11,05,500.10
2016,08,31,11,06,306.00
2016,08,31,11,07,306.00
2016,08,31,11,08,250.30
2016,08,31,11,09,246.00
2016,08,31,11,10,246.00
2016,08,31,11,11,418.10
2016,08,31,11,12,684.00
2016,08,31,11,13,684.00
2016,08,31,11,14,684.00
2016,08,31,11,15,694.80
2016,08,31,11,16,737.00
2016,08,31,11,17,643.90
2016,08,31,11,18,411.00
2016,08,31,11,19,617.20
2016,08,31,11,20,796.00
2016,08,31,11,21,796.00
2016,08,31,11,22,777.30
2016,08,31,11,23,287.50
2016,08,31,11,24,362.00
2016,08,31,11,25,362.00
2016,08,31,11,26,371.60
2016,08,31,11,27,344.00
2016,08,31,11,28,325.00
2016,08,31,11,29,798.10
2016,08,31,11,30,766.80
2016,08,31,11,31,728.60
2016,08,31,11,32,709.10
2016,08,31,11,33,708.00
2016,08,31,11,34,708.00
2016,08,31,11,35,708.00
2016,08,31,11,36,709.40
2016,08,31,11,37,751.90
2016,08,31,11,38,766.00
2016,08,31,11,39,545.00
2016,08,31,11,40,232.00
2016,08,31,11,41,232.00
2016,08,31,11,42,232.00
2016,08,31,11,43,278.40
2016,08,31,11,44,251.30
2016,08,31,11,45,257.00
2016,08,31,11,46,292.00
2016,08,31,11,47,292.00
2016,08,31,11,48,265.50
2016,08,31,11,49,285.50
2016,08,31,11,50,294.00
2016,08,31,11,51,281.20
2016,08,31,11,52,222.20
2016,08,31,11,53,239.90
2016,08,31,11,54,247.10
2016,08,31,11,55,217.30
2016,08,31,11,56,195.10
2016,08,31,11,57,212.70
2016,08,31,11,58,220.60
2016,08,31,11,59,221.30
2016,08,31,12,00,229.60
2016,08,31,12,01,229.00
2016,08,31,12,02,267.70
2016,08,31,12,03,251.10
2016,08,31,12,04,217.20
2016,08,31,12,05,225.30
2016,08,31,12,06,215.30
2016,08,31,12,07,189.70
2016,08,31,12,08,243.60
2016,08,31,12,09,283.00
2016,08,31,12,10,283.00
2016,08,31,12,11,280.30
2016,08,31,12,12,206.00
2016,08,31,12,13,206.00
2016,08,31,12,14,206.00
2016,08,31,12,15,206.00
2016,08,31,12,16,203.40
2016,08,31,12,17,216.10
2016,08,31,12,18,220.00
2016,08,31,12,19,212.40
2016,08,31,12,20,179.40
2016,08,31,12,21,211.20
2016,08,31,12,22,251.00
2016,08,31,12,23,224.20
2016,08,31,12,24,239.20
2016,08,31,12,25,248.00
2016,08,31,12,26,257.10
2016,08,31,12,27,301.00
2016,08,31,12,28,497.10
2016,08,31,12,29,771.20
2016,08,31,12,30,770.60
2016,08,31,12,31,772.80
2016,08,31,12,32,789.00
2016,08,31,12,33,821.00
2016,08,31,12,34,821.00
2016,08,31,12,35,562.80
2016,08,31,12,36,194.20
2016,08,31,12,37,203.50
2016,08,31,12,38,209.00
2016,08,31,12,39,209.00
2016,08,31,12,40,209.00
2016,08,31,12,41,212.70
2016,08,31,12,42,221.00
2016,08,31,12,43,522.00
2016,08,31,12,44,803.00
2016,08,31,12,45,410.90
2016,08,31,12,46,252.00
2016,08,31,12,47,246.00
2016,08,31,12,48,246.00
2016,08,31,12,49,449.20
2016,08,31,12,50,738.60
2016,08,31,12,51,740.00
2016,08,31,12,52,740.00
2016,08,31,12,53,740.00
2016,08,31,12,54,740.00
2016,08,31,12,55,740.00
2016,08,31,12,56,742.90
2016,08,31,12,57,749.70
2016,08,31,12,58,755.90
2016,08,31,12,59,772.90
2016,08,31,13,00,777.00
2016,08,31,13,01,777.00
2016,08,31,13,02,786.10
2016,08,31,13,03,814.00
2016,08,31,13,04,819.90
2016,08,31,13,05,821.60
2016,08,31,13,06,752.30
2016,08,31,13,07,733.00
2016,08,31,13,08,733.00
2016,08,31,13,09,733.00
2016,08,31,13,10,733.00
2016,08,31,13,11,771.60
2016,08,31,13,12,807.60
2016,08,31,13,13,809.00
2016,08,31,13,14,808.90
2016,08,31,13,15,806.00
2016,08,31,13,16,797.00
2016,08,31,13,17,784.00
2016,08,31,13,18,764.70
2016,08,31,13,19,747.40
2016,08,31,13,20,744.00
2016,08,31,13,21,729.60
2016,08,31,13,22,725.30
2016,08,31,13,23,721.00
2016,08,31,13,24,719.30
2016,08,31,13,25,715.90
2016,08,31,13,26,720.90
2016,08,31,13,27,729.50
2016,08,31,13,28,723.70
2016,08,31,13,29,519.00
2016,08,31,13,30,573.10
2016,08,31,13,31,711.70
2016,08,31,13,32,707.50
2016,08,31,13,33,706.00
2016,08,31,13,34,705.00
2016,08,31,13,35,707.70
2016,08,31,13,36,708.00
2016,08,31,13,37,714.00
2016,08,31,13,38,709.40
2016,08,31,13,39,701.90
2016,08,31,13,40,701.00
2016,08,31,13,41,701.00
2016,08,31,13,42,701.10
2016,08,31,13,43,700.20
2016,08,31,13,44,692.10
2016,08,31,13,45,704.20
2016,08,31,13,46,703.00
2016,08,31,13,47,703.00
2016,08,31,13,48,703.00
2016,08,31,13,49,705.00
2016,08,31,13,50,712.60
2016,08,31,13,51,723.60
2016,08,31,13,52,712.00
2016,08,31,13,53,712.00
2016,08,31,13,54,730.30
2016,08,31,13,55,740.00
2016,08,31,13,56,738.50
2016,08,31,13,57,698.00
2016,08,31,13,58,697.40
2016,08,31,13,59,695.20
2016,08,31,14,00,694.00
2016,08,31,14,01,694.00
2016,08,31,14,02,694.00
2016,08,31,14,03,691.40
2016,08,31,14,04,692.70
2016,08,31,14,05,690.40
2016,08,31,14,06,688.20
2016,08,31,14,07,687.00
2016,08,31,14,08,688.30
2016,08,31,14,09,689.00
2016,08,31,14,10,689.10
2016,08,31,14,11,692.00
2016,08,31,14,12,700.80
2016,08,31,14,13,714.30
2016,08,31,14,14,709.50
2016,08,31,14,15,724.80
2016,08,31,14,16,741.60
2016,08,31,14,17,737.30
2016,08,31,14,18,730.60
2016,08,31,14,19,726.10
2016,08,31,14,20,720.20
2016,08,31,14,21,723.70
2016,08,31,14,22,720.80
2016,08,31,14,23,713.10
2016,08,31,14,24,710.10
2016,08,31,14,25,706.00
2016,08,31,14,26,699.00
2016,08,31,14,27,693.60
2016,08,31,14,28,678.50
2016,08,31,14,29,647.70
2016,08,31,14,30,645.10
2016,08,31,14,31,635.20
2016,08,31,14,32,600.00
2016,08,31,14,33,563.60
2016,08,31,14,34,536.30
2016,08,31,14,35,552.90
2016,08,31,14,36,591.80
2016,08,31,14,37,653.20
2016,08,31,14,38,684.10
2016,08,31,14,39,667.40
2016,08,31,14,40,709.70
2016,08,31,14,41,713.20
2016,08,31,14,42,717.50
2016,08,31,14,43,661.60
2016,08,31,14,44,686.90
2016,08,31,14,45,711.30
2016,08,31,14,46,716.70
2016,08,31,14,47,713.10
2016,08,31,14,48,695.60
2016,08,31,14,49,760.60
2016,08,31,14,50,770.00
2016,08,31,14,51,770.00
2016,08,31,14,52,764.30
2016,08,31,14,53,596.00
2016,08,31,14,54,541.70
2016,08,31,14,55,537.60
2016,08,31,14,56,585.10
2016,08,31,14,57,646.10
2016,08,31,14,58,692.30
2016,08,31,14,59,702.70
2016,08,31,15,00,703.00
2016,08,31,15,01,703.00
2016,08,31,15,02,703.00
2016,08,31,15,03,703.00
2016,08,31,15,04,703.00
2016,08,31,15,05,629.90
2016,08,31,15,06,566.50
2016,08,31,15,07,624.00
2016,08,31,15,08,585.70
2016,08,31,15,09,490.00
2016,08,31,15,10,439.60
2016,08,31,15,11,390.10
2016,08,31,15,12,387.00
2016,08,31,15,13,352.30
2016,08,31,15,14,397.20
2016,08,31,15,15,436.00
2016,08,31,15,16,413.30
2016,08,31,15,17,393.50
2016,08,31,15,18,440.60
2016,08,31,15,19,487.00
2016,08,31,15,20,532.20
2016,08,31,15,21,496.90
2016,08,31,15,22,506.40
2016,08,31,15,23,522.50
2016,08,31,15,24,516.40
2016,08,31,15,25,535.50
2016,08,31,15,26,542.90
2016,08,31,15,27,560.40
2016,08,31,15,28,555.00
2016,08,31,15,29,495.00
2016,08,31,15,30,321.00
2016,08,31,15,31,291.30
2016,08,31,15,32,278.00
2016,08,31,15,33,265.10
2016,08,31,15,34,264.00
2016,08,31,15,35,334.90
2016,08,31,15,36,655.00
2016,08,31,15,37,590.90
2016,08,31,15,38,561.90
2016,08,31,15,39,598.60
2016,08,31,15,40,611.00
2016,08,31,15,41,612.10
2016,08,31,15,42,602.30
2016,08,31,15,43,588.70
2016,08,31,15,44,583.30
2016,08,31,15,45,634.50
2016,08,31,15,46,661.90
2016,08,31,15,47,607.10
2016,08,31,15,48,558.70
2016,08,31,15,49,526.90
2016,08,31,15,50,380.00
2016,08,31,15,51,340.50
2016,08,31,15,52,322.20
2016,08,31,15,53,267.60
2016,08,31,15,54,219.80
2016,08,31,15,55,213.90
2016,08,31,15,56,212.30
2016,08,31,15,57,220.80
2016,08,31,15,58,227.30
2016,08,31,15,59,235.70
2016,08,31,16,00,238.40
2016,08,31,16,01,231.10
2016,08,31,16,02,221.60
2016,08,31,16,03,241.70
2016,08,31,16,04,331.60
2016,08,31,16,05,304.30
2016,08,31,16,06,308.40
2016,08,31,16,07,299.70
2016,08,31,16,08,301.50
2016,08,31,16,09,237.30
2016,08,31,16,10,233.80
2016,08,31,16,11,231.40
2016,08,31,16,12,250.00
2016,08,31,16,13,369.00
2016,08,31,16,14,480.00
2016,08,31,16,15,583.70
2016,08,31,16,16,524.40
2016,08,31,16,17,579.60
2016,08,31,16,18,595.90
2016,08,31,16,19,540.00
2016,08,31,16,20,450.60
2016,08,31,16,21,384.10
2016,08,31,16,22,365.60
2016,08,31,16,23,363.80
2016,08,31,16,24,288.60
2016,08,31,16,25,285.20
2016,08,31,16,26,322.00
2016,08,31,16,27,333.30
2016,08,31,16,28,358.00
2016,08,31,16,29,335.60
2016,08,31,16,30,251.00
2016,08,31,16,31,223.00
2016,08,31,16,32,223.00
2016,08,31,16,33,204.80
2016,08,31,16,34,173.60
2016,08,31,16,35,175.60
2016,08,31,16,36,173.50
2016,08,31,16,37,172.10
2016,08,31,16,38,176.30
2016,08,31,16,39,176.90
2016,08,31,16,40,173.20
2016,08,31,16,41,170.40
2016,08,31,16,42,174.90
2016,08,31,16,43,178.00
2016,08,31,16,44,178.30
2016,08,31,16,45,186.40
2016,08,31,16,46,178.10
2016,08,31,16,47,176.00
2016,08,31,16,48,172.10
2016,08,31,16,49,164.20
2016,08,31,16,50,162.00
2016,08,31,16,51,156.60
2016,08,31,16,52,155.00
2016,08,31,16,53,153.80
2016,08,31,16,54,148.00
2016,08,31,16,55,141.40
2016,08,31,16,56,135.80
2016,08,31,16,57,131.00
2016,08,31,16,58,134.60
2016,08,31,16,59,137.80
2016,08,31,17,00,133.60
2016,08,31,17,01,139.10
2016,08,31,17,02,140.30
2016,08,31,17,03,136.30
2016,08,31,17,04,134.20
2016,08,31,17,05,130.40
2016,08,31,17,06,130.00
2016,08,31,17,07,130.00
2016,08,31,17,08,131.70
2016,08,31,17,09,134.00
2016,08,31,17,10,131.30
2016,08,31,17,11,130.00
2016,08,31,17,12,132.50
2016,08,31,17,13,150.60
2016,08,31,17,14,162.40
2016,08,31,17,15,203.00
2016,08,31,17,16,222.60